This is the latest recevied weather packets stored in our database for station/object K0NV. If no packets are shown the sender has not sent any weather packets the latest 10 day(s).
| Time | Temp. | Humidity | Pressure | Rain* | Wind** | Luminosity | Snow |
|---|---|---|---|---|---|---|---|
| 1777468435 | 9.44° C | 99% | 1020.5 hPa | 0 mm | - | 197 W/m² | - |
| 1777468130 | 8.89° C | 99% | 1020.2 hPa | 0 mm | - | 183 W/m² | - |
| 1777467827 | 8.89° C | 99% | 1020.5 hPa | 0 mm | - | 108 W/m² | - |
| 1777467523 | 8.89° C | 99% | 1020.4 hPa | 0 mm | - | 194 W/m² | - |
| 1777467218 | 8.89° C | 99% | 1020.4 hPa | 0 mm | - | 95 W/m² | - |
| 1777466915 | 8.89° C | 99% | 1020.2 hPa | 0 mm | - | 81 W/m² | - |
| 1777466613 | 8.89° C | 99% | 1020.1 hPa | 0 mm | - | 73 W/m² | - |
| 1777466309 | 8.89° C | 99% | 1020.1 hPa | 0 mm | - | 69 W/m² | - |
| 1777466006 | 8.33° C | 99% | 1020 hPa | 0 mm | - | 63 W/m² | - |
| 1777465702 | 8.33° C | 99% | 1019.7 hPa | 0 mm | - | 68 W/m² | - |
| 1777465397 | 8.33° C | 99% | 1019.9 hPa | 0 mm | - | 58 W/m² | - |
| 1777465096 | 8.33° C | 99% | 1019.5 hPa | 0 mm | - | 52 W/m² | - |
| 1777464792 | 8.33° C | 99% | 1019.8 hPa | 0 mm | - | 44 W/m² | - |
| 1777464488 | 8.33° C | 99% | 1019 hPa | 0 mm | - | 39 W/m² | - |
| 1777464184 | 7.78° C | 99% | 1019.5 hPa | 0 mm | - | 33 W/m² | - |
| 1777463878 | 7.78° C | 99% | 1019.3 hPa | 0 mm | - | 28 W/m² | - |
| 1777463574 | 7.78° C | 99% | 1019.2 hPa | 0 mm | - | 23 W/m² | - |
| 1777463269 | 7.78° C | 99% | 1019.2 hPa | 0 mm | - | 15 W/m² | - |
| 1777462966 | 7.78° C | 99% | 1019.2 hPa | 0 mm | - | 11 W/m² | - |
| 1777462661 | 7.78° C | 99% | 1019.1 hPa | 0 mm | - | 9 W/m² | - |
| 1777462357 | 7.78° C | 99% | 1018.9 hPa | 0 mm | - | 5 W/m² | - |
| 1777462053 | 7.78° C | 99% | 1019 hPa | 0 mm | - | 3 W/m² | - |
| 1777461751 | 7.78° C | 99% | 1019.1 hPa | 0 mm | - | 1 W/m² | - |
| 1777461445 | 7.78° C | 99% | 1018.9 hPa | 0 mm | - | 0 W/m² | - |
| 1777461142 | 8.33° C | 99% | 1019.1 hPa | 0 mm | - | 0 W/m² | - |
* Rain latest hour (hover to see other rain measurements)
** Current wind speed in m/s (hover to see current wind gust speed)